Location: *
(48.8489°N, 2.3218°E)
Time: 10:16:52
(UTC+00:00)

Meteor 2-8 Rocket - Pass Details

Date: 23 August 2019
Orbit: 936 x 958 km, 82.5° (Epoch: 15 September)

Event Time Altitude Azimuth Distance (km) Brightness Sun altitude
Exits shadow 21:13:37 29° 175° (S) 1,656 5.3 -20.3°
Maximum altitude 21:16:52 74° 96° (E) 977 4.3 -20.7°
Drops below altitude 10° 21:22:56 10° 13° (NNE) 2,660 7.3 -21.3°
Sets 21:25:25 0° 12° (NNE) 3,609 8.0 -21.6°
